Wind_Speed
13 13 13 13 14 14 15 15 16 16 16 17 17 18 18 19 19 20 21 21 21 21 21 20 20 19 19 18 17 17 16 15 14 14 14 15 15 16 17 17 18 19 19
14 14 14 15 15 16 16 17 17 18 18 18 18 19 19 20 20 21 22 22 22 21 21 21 21 20 19 18 18 18 17 16 16 15 16 16 16 17 18 19 19 20 21
15 15 16 16 17 17 18 18 19 19 19 19 19 20 20 20 21 22 23 22 22 22 23 22 21 20 19 19 18 18 17 17 17 17 17 17 18 18 19 20 21 21 22
16 17 17 18 18 19 19 20 20 20 20 20 20 20 21 22 23 24 24 23 24 24 24 23 22 21 20 19 19 18 18 18 18 18 18 19 20 20 21 21 22 23 23
17 18 18 19 20 20 21 21 21 21 21 21 21 22 22 23 24 24 25 25 25 25 25 24 23 22 21 20 20 20 20 20 20 20 21 22 23 23 24 24 25 25 26
18 19 20 21 21 22 22 22 23 23 23 23 23 23 24 25 25 26 26 26 26 26 25 25 25 24 23 23 22 23 23 23 23 23 24 25 27 28 28 28 28 29 29
20 20 21 22 22 23 23 24 24 24 24 24 24 25 26 26 26 26 27 27 28 27 27 27 27 26 26 26 25 25 26 26 27 27 28 29 30 31 31 32 32 32 33
21 21 22 23 23 24 24 24 24 24 25 25 26 26 27 27 28 28 29 30 30 30 29 29 29 28 28 29 29 29 29 30 30 31 32 33 33 33 34 34 35 35 36
22 23 23 24 24 24 25 25 26 26 27 27 28 28 28 29 30 31 31 31 31 31 31 31 31 31 31 31 32 32 32 33 34 34 35 35 36 36 37 38 38 38 38
24 24 25 25 25 25 26 27 28 28 28 29 29 30 30 31 32 33 33 33 33 33 34 33 33 33 34 34 35 35 35 36 37 37 38 38 39 40 41 41 41 42 41
24 25 26 26 26 27 28 29 29 30 30 30 31 32 32 33 34 35 35 36 36 36 36 36 35 36 36 37 37 38 39 39 39 40 40 41 42 42 42 43 43 44 43
25 26 27 28 28 29 30 31 31 32 32 33 33 34 35 36 36 37 37 37 38 38 38 38 38 38 38 39 40 40 41 41 41 42 42 42 42 42 43 43 44 44 44
28 28 29 30 30 31 32 32 33 34 34 35 36 36 37 38 38 39 39 39 40 40 40 40 40 40 41 41 41 42 42 43 43 43 43 43 42 43 43 43 44 44 44
30 30 31 32 32 33 34 35 35 36 37 37 38 39 39 40 41 41 42 42 42 42 42 42 42 42 43 43 43 43 44 44 44 44 43 43 43 43 44 44 44 44 44
32 32 33 34 34 35 36 37 37 38 39 40 40 41 42 42 43 44 44 44 44 44 44 44 44 44 44 44 44 44 44 44 44 44 44 44 44 44 44 44 44 45 45
34 34 35 36 37 38 38 39 39 40 41 42 43 44 44 45 45 46 46 46 46 46 46 46 46 46 46 46 46 45 45 45 44 44 44 45 46 46 45 46 46 46 46
36 37 37 38 39 40 41 41 42 42 43 44 45 46 47 47 48 48 48 49 49 49 49 49 49 48 48 48 47 47 46 45 45 45 45 46 45 45 45 45 45 46 46
38 39 40 41 42 42 43 44 44 45 46 46 47 48 49 50 50 51 51 51 51 51 51 51 50 50 49 49 48 47 46 45 45 46 46 46 46 45 45 45 45 46 46
41 42 43 44 45 46 46 47 47 48 49 49 50 50 51 52 52 53 53 53 53 52 52 52 51 51 50 49 48 47 46 46 46 47 47 47 47 46 45 46 45 45 45
44 45 46 47 48 49 49 50 50 51 51 52 52 52 53 53 54 54 55 55 54 54 54 53 52 51 51 50 48 46 46 47 47 46 46 46 46 46 45 45 45 45 45
46 47 48 49 49 50 51 51 52 52 52 52 53 53 54 55 56 56 56 56 56 55 54 53 52 51 50 50 48 47 47 47 46 45 45 45 45 45 44 44 44 44 44
48 49 49 50 51 51 52 52 52 53 53 54 55 55 56 57 57 57 57 56 56 55 54 53 51 50 49 48 47 47 47 46 46 46 45 45 45 44 44 44 44 43 43
50 51 51 52 53 53 54 54 55 55 56 56 56 56 56 57 57 58 57 56 55 54 53 52 51 50 49 48 47 47 47 46 46 47 46 46 45 45 45 43 42 42 42
51 52 53 53 54 55 55 56 56 57 57 57 57 57 57 57 58 58 58 56 55 54 53 52 51 50 49 48 47 47 46 46 46 47 47 47 46 45 44 43 42 42 41
53 53 54 55 55 56 56 57 57 57 57 57 58 57 57 57 57 57 57 55 54 53 52 52 51 50 49 48 48 47 47 47 47 47 47 46 45 44 43 42 41 41 40
54 55 56 57 57 57 58 58 58 58 58 58 58 58 58 57 57 56 55 54 53 52 51 51 51 51 50 49 49 49 48 47 46 46 45 44 43 42 42 41 41 40 38
Wind_Direction
275 278 283 289 295 300 305 308 310 312 314 317 319 321 323 324 326 327 328 326 325 324 324 323 321 318 314 309 307 305 302 297 294 293 291 289 285 281 277 275 274 270 268
275 278 282 287 293 297 302 305 308 309 310 312 315 317 319 321 323 324 324 324 324 323 323 322 320 318 315 311 308 303 299 296 292 290 291 289 287 284 280 277 275 272 270
276 278 282 286 291 295 299 303 306 307 308 309 310 312 314 316 318 320 322 322 322 321 321 321 320 317 315 311 308 304 300 297 293 290 290 289 288 286 283 279 277 273 271
278 279 282 285 290 294 297 301 303 304 306 308 308 309 311 312 315 317 318 319 319 319 318 318 318 316 313 310 307 305 301 299 297 293 292 291 290 288 286 282 278 275 272
281 282 284 286 289 293 296 299 301 302 303 305 305 305 308 310 312 314 316 316 316 315 314 314 315 313 310 308 305 303 301 299 297 295 293 291 290 289 287 284 281 277 274
285 286 287 289 291 293 295 297 299 300 301 302 302 302 305 307 310 311 312 313 313 312 310 310 309 308 305 304 303 300 298 295 294 294 293 291 290 289 287 285 282 278 276
286 287 289 291 292 293 294 296 297 297 297 299 299 301 302 304 306 307 309 311 311 310 309 307 306 304 302 300 299 298 296 294 293 293 292 291 290 288 286 285 283 280 277
286 288 289 290 291 293 294 296 296 296 297 298 298 299 301 303 304 306 307 308 309 309 308 306 304 301 299 298 296 295 294 293 292 292 291 290 289 288 287 285 283 281 278
286 288 289 290 291 293 294 295 295 295 295 296 297 298 300 302 303 304 305 306 306 306 306 305 302 300 298 297 295 294 293 293 293 292 292 291 290 288 287 286 285 282 280
287 288 289 290 291 293 294 295 295 295 295 296 296 297 299 301 302 304 304 304 304 304 304 303 301 299 297 296 295 294 293 292 292 292 291 291 290 288 287 286 284 283 280
287 288 289 289 291 292 293 294 295 295 295 295 296 297 298 300 301 302 302 303 303 303 303 302 300 299 297 296 295 294 293 292 292 291 290 289 288 287 286 285 284 282 279
288 289 290 290 291 292 293 294 294 294 294 295 296 298 299 299 300 300 301 301 302 302 302 301 299 298 298 297 296 295 294 292 292 291 291 290 288 287 286 285 283 282 280
288 289 289 290 291 292 293 294 294 294 295 295 297 298 298 298 299 299 299 300 301 301 301 301 300 299 297 297 296 296 294 293 292 292 292 291 289 287 286 285 284 282 280
287 289 289 290 290 291 293 294 294 294 295 296 297 298 298 298 298 299 299 299 300 300 300 300 299 299 298 297 296 296 294 293 293 292 291 291 289 288 286 285 283 282 280
286 287 289 290 290 291 293 293 293 294 295 296 297 297 298 298 298 298 299 299 299 300 300 300 299 298 298 296 295 295 294 294 293 293 292 291 291 289 286 285 285 283 281
286 287 288 290 290 291 293 293 293 294 295 296 296 296 297 297 297 298 298 299 299 299 299 299 299 298 298 297 295 295 294 293 293 293 293 293 292 290 287 286 286 284 283
286 287 288 290 291 292 293 293 293 294 294 295 295 295 296 297 297 297 298 298 298 298 298 298 298 298 297 296 295 294 293 293 293 293 294 294 293 291 289 287 286 285 283
286 288 289 290 291 292 293 293 293 294 294 294 294 295 295 296 296 296 296 297 297 297 297 297 297 297 296 296 295 293 293 292 293 293 294 293 292 291 289 288 288 286 284
287 288 289 290 291 292 293 293 293 293 293 294 294 294 294 295 295 295 295 295 296 296 296 296 295 295 295 294 294 292 292 291 292 292 292 292 291 291 290 288 287 286 285
287 288 289 290 291 292 293 293 293 293 293 294 294 294 294 294 294 294 294 295 295 295 295 295 295 294 294 294 293 291 291 291 291 291 292 291 290 291 290 288 286 285 284
287 288 289 290 291 292 293 293 293 293 293 293 294 294 294 294 295 294 294 295 294 294 294 294 293 293 293 293 292 291 291 291 291 291 290 290 290 290 290 289 288 286 284
289 290 290 291 292 293 293 293 293 293 293 293 294 294 294 294 295 295 294 294 294 293 293 293 293 293 292 292 291 291 291 290 290 290 290 290 289 289 290 290 289 287 286
290 290 291 292 292 293 293 293 293 293 294 294 294 294 294 294 295 295 294 293 293 292 292 292 292 291 291 290 290 290 290 289 289 288 288 288 289 289 289 289 288 287 286
290 291 291 292 292 293 293 293 293 293 294 294 294 294 294 294 294 294 294 294 293 292 291 290 289 289 289 289 289 290 290 289 288 287 287 287 287 288 287 287 287 287 286
291 291 292 292 293 293 294 294 294 294 294 294 294 293 293 294 294 294 294 293 292 292 290 289 288 287 287 288 289 288 288 288 288 287 286 286 286 286 286 286 286 286 285
291 291 292 292 292 293 294 294 294 294 294 294 293 293 294 294 293 293 293 292 291 290 290 289 287 286 286 287 288 287 287 287 287 286 285 285 284 284 284 284 285 285 283
Height
5877 5878 5877 5877 5876 5875 5874 5873 5871 5870 5868 5866 5864 5862 5860 5857 5855 5852 5849 5845 5842 5839 5836 5833 5830 5827 5825 5823 5822 5821 5819 5819 5820 5820 5819 5820 5820 5820 5821 5821 5822 5823 5824
5874 5874 5874 5874 5873 5872 5871 5869 5868 5866 5864 5862 5860 5858 5856 5854 5851 5848 5845 5842 5839 5835 5832 5829 5826 5823 5820 5818 5817 5815 5815 5814 5815 5815 5815 5815 5815 5815 5815 5816 5817 5818 5819
5870 5870 5870 5870 5869 5868 5867 5865 5864 5862 5860 5858 5856 5854 5852 5849 5847 5844 5841 5837 5834 5831 5828 5825 5821 5819 5816 5814 5812 5811 5810 5810 5810 5810 5810 5810 5810 5810 5810 5811 5811 5812 5813
5866 5866 5866 5865 5865 5864 5863 5861 5859 5858 5856 5854 5852 5850 5847 5845 5842 5839 5836 5833 5830 5826 5823 5820 5817 5814 5812 5810 5808 5807 5806 5805 5805 5805 5805 5805 5805 5804 5804 5805 5805 5806 5806
5862 5861 5861 5861 5860 5859 5858 5856 5855 5853 5851 5849 5847 5844 5842 5839 5837 5834 5830 5827 5824 5821 5818 5815 5812 5810 5807 5805 5804 5802 5801 5800 5800 5799 5799 5799 5798 5798 5798 5797 5798 5798 5799
5857 5857 5856 5855 5855 5854 5852 5851 5849 5847 5845 5843 5841 5839 5836 5833 5831 5827 5824 5821 5818 5815 5812 5810 5807 5804 5802 5800 5798 5797 5795 5794 5794 5793 5792 5791 5791 5790 5789 5789 5789 5790 5791
5852 5852 5851 5850 5849 5848 5846 5845 5843 5841 5839 5837 5835 5832 5830 5827 5824 5821 5818 5815 5812 5809 5806 5803 5800 5798 5795 5793 5792 5790 5789 5787 5786 5785 5784 5783 5782 5781 5780 5779 5779 5779 5780
5847 5846 5845 5844 5843 5841 5840 5838 5837 5835 5832 5830 5828 5825 5823 5820 5817 5814 5811 5808 5805 5802 5799 5796 5793 5790 5788 5786 5784 5783 5781 5779 5778 5776 5775 5773 5771 5770 5769 5769 5768 5768 5768
5841 5840 5839 5838 5836 5835 5833 5831 5830 5828 5825 5823 5820 5818 5815 5813 5810 5807 5803 5800 5797 5794 5791 5788 5785 5782 5780 5777 5775 5774 5772 5770 5768 5766 5764 5762 5760 5759 5757 5757 5756 5756 5756
5834 5833 5832 5831 5829 5828 5826 5824 5822 5820 5818 5815 5813 5810 5808 5805 5802 5798 5795 5792 5789 5786 5783 5779 5776 5773 5770 5767 5765 5763 5761 5759 5757 5754 5752 5750 5748 5746 5744 5743 5742 5741 5741
5827 5826 5825 5824 5822 5821 5819 5817 5814 5812 5810 5807 5805 5802 5799 5796 5793 5790 5786 5783 5779 5776 5773 5770 5766 5763 5760 5757 5754 5751 5749 5747 5744 5742 5740 5737 5735 5732 5731 5729 5727 5726 5726
5821 5819 5818 5816 5815 5813 5811 5808 5806 5803 5801 5799 5796 5793 5790 5787 5783 5780 5776 5773 5769 5766 5762 5759 5755 5752 5748 5745 5742 5739 5736 5733 5731 5729 5726 5723 5721 5718 5716 5714 5713 5711 5711
5813 5811 5810 5808 5806 5804 5802 5799 5797 5794 5792 5789 5786 5783 5780 5776 5773 5769 5765 5762 5758 5755 5751 5747 5744 5740 5736 5733 5729 5726 5723 5720 5717 5714 5712 5709 5706 5704 5702 5700 5698 5696 5695
5805 5803 5801 5799 5797 5795 5793 5790 5787 5785 5782 5779 5776 5773 5769 5765 5762 5758 5754 5751 5747 5743 5740 5736 5732 5728 5724 5720 5717 5713 5709 5706 5703 5700 5697 5694 5692 5689 5686 5684 5683 5681 5680
5796 5794 5792 5790 5788 5786 5783 5780 5777 5774 5771 5768 5765 5761 5757 5754 5750 5746 5742 5738 5735 5731 5727 5724 5720 5716 5712 5707 5703 5700 5696 5692 5689 5686 5683 5680 5677 5674 5672 5669 5667 5665 5664
5786 5784 5782 5780 5778 5775 5772 5770 5766 5763 5760 5756 5752 5749 5745 5741 5737 5733 5729 5725 5721 5718 5714 5710 5706 5702 5697 5693 5689 5685 5682 5678 5675 5672 5668 5665 5662 5659 5657 5654 5652 5650 5649
5776 5774 5772 5769 5767 5764 5761 5758 5755 5752 5748 5744 5740 5736 5732 5728 5724 5720 5716 5712 5708 5704 5700 5696 5692 5687 5683 5678 5674 5671 5667 5664 5660 5657 5654 5650 5647 5644 5641 5639 5637 5635 5633
5765 5763 5760 5758 5755 5752 5749 5745 5742 5739 5736 5732 5728 5723 5719 5715 5710 5706 5702 5698 5694 5690 5685 5681 5677 5672 5668 5664 5660 5656 5653 5650 5646 5643 5639 5636 5632 5629 5627 5624 5622 5619 5618
5753 5751 5748 5745 5742 5739 5735 5732 5728 5725 5721 5717 5714 5709 5705 5700 5696 5691 5687 5683 5679 5675 5670 5666 5661 5657 5653 5648 5645 5641 5638 5635 5632 5628 5625 5622 5618 5615 5612 5609 5606 5604 5602
5741 5738 5735 5732 5728 5725 5721 5717 5714 5710 5706 5702 5698 5694 5689 5685 5680 5676 5671 5667 5662 5658 5654 5649 5645 5641 5637 5633 5629 5626 5623 5620 5617 5613 5610 5607 5604 5600 5597 5595 5592 5589 5587
5727 5724 5721 5717 5714 5710 5706 5702 5698 5694 5690 5686 5682 5677 5672 5668 5664 5659 5655 5650 5646 5641 5637 5633 5629 5625 5621 5617 5614 5610 5608 5605 5601 5598 5596 5593 5590 5587 5584 5581 5578 5575 5572
5712 5709 5706 5702 5699 5695 5691 5686 5682 5678 5674 5670 5666 5661 5656 5651 5646 5642 5638 5633 5629 5624 5620 5616 5613 5609 5605 5601 5598 5595 5592 5589 5586 5584 5581 5578 5576 5573 5570 5567 5564 5561 5559
5698 5694 5691 5687 5683 5679 5674 5670 5666 5662 5657 5653 5648 5644 5639 5634 5629 5624 5620 5615 5611 5607 5603 5600 5596 5593 5589 5585 5582 5579 5576 5574 5571 5568 5566 5564 5561 5559 5556 5553 5550 5547 5545
5682 5679 5675 5671 5667 5662 5658 5653 5649 5644 5640 5635 5631 5626 5621 5616 5611 5607 5602 5598 5594 5590 5586 5583 5579 5576 5573 5570 5567 5564 5561 5558 5555 5553 5551 5548 5547 5544 5542 5539 5537 5534 5532
5666 5663 5659 5654 5650 5645 5641 5636 5631 5627 5622 5617 5613 5608 5603 5598 5593 5589 5584 5580 5576 5572 5569 5566 5562 5559 5557 5554 5551 5548 5546 5543 5540 5538 5536 5533 5532 5530 5527 5525 5523 5521 5519
5650 5646 5641 5637 5633 5628 5623 5618 5614 5609 5604 5599 5594 5589 5585 5580 5575 5570 5566 5562 5558 5555 5551 5548 5545 5543 5540 5538 5535 5533 5530 5528 5525 5523 5521 5519 5517 5515 5513 5512 5510 5508 5506